Regional Weather Roundup
Issued by NWS

Home | Current Version | Previous Version | Text Only | Print | Product List | Glossary On
Versions: 1 2 3 4 5 6 7 8 9 10 11 12 13 14 15 16 17 18 19 20 21 22 23 24 25 26 27 28 29 30 31 32 33 34 35 36 37 38 39 40 41 42 43 44 45 46 47 48 49 50
000
ASUS45 KABQ 021701
RWRNM
NEW MEXICO REGIONAL WEATHER ROUNDUP
NATIONAL WEATHER SERVICE ALBUQUERQUE NM
1100 AM MDT THU JUL 02 2015

NOTE: "FAIR" MEANS FEW OR NO CLOUDS BELOW 12,000 FEET AGL WITH NO
       SIGNIFICANT WEATHER OR OBSTRUCTIONS TO VISION.

      THIS PRODUCT IS RELEASED AS TWO VERSIONS.  ONE VERSION NEAR
      THE TOP OF THE HOUR CONTAINING PRELIMINARY DATA FROM ALBUQUERQUE
      AND OTHER STATIONS.  A FINAL VERSION WITH ADDITIONAL DATA IS
      ISSUED ABOUT 10 MINUTES AFTER THE HOUR.

NMZ501-503-504-510>518-021800-
NORTHWEST PLATEAU/NORTHCENTRAL MOUNTAINS

CITY           SKY/WX    TMP DP  RH WIND       PRES   REMARKS
FARMINGTON     SUNNY     79  52  38 W8        30.17S
SANTA FE       PTSUNNY   75  55  49 N13       30.21F
TAOS           MOSUNNY   72  48  43 CALM      30.29F

$$
NMZ402-403-502-505>509-021800-
WESTCENTRAL MOUNTAINS/SOUTHWEST MOUNTAINS

CITY           SKY/WX    TMP DP  RH WIND       PRES   REMARKS
GALLUP         MOSUNNY   79  51  37 E6        30.25F
SILVER CITY      N/A     88  46  23 W7        30.15S

$$
NMZ407-409-411-412-021800-
SOUTHERN DESERTS

CITY           SKY/WX    TMP DP  RH WIND       PRES   REMARKS
DEMING         SUNNY     89  56  32 W7        30.06F
HOLLOMAN AFB   MOSUNNY   90  52  27 SW6       30.03F
ALAMOGORDO     MOSUNNY   90  50  25 SW6       30.05F
T OR C         MOSUNNY   88  53  30 E13       30.08F

$$
NMZ519>523-021800-
CENTRAL VALLEYS/CENTRAL HIGHLANDS

CITY           SKY/WX    TMP DP  RH WIND       PRES   REMARKS
ALBUQUERQUE    MOSUNNY   85  52  32 NW8       30.14F
DOUBLE EAGLE   PTSUNNY   82  54  36 NE6       30.19F
CLINES CORNERS MOSUNNY   79  51  37 NW8       30.26S
BELEN          FAIR      86  46  25 N10       30.13F
SOCORRO        NOT AVBL

$$
NMZ524>526-539-540-021800-
SOUTHCENTRAL MOUNTAINS

CITY           SKY/WX    TMP DP  RH WIND       PRES   REMARKS
RUIDOSO        NOT AVBL

$$
NMZ527>531-021800-
NORTHEAST HIGHLANDS/NORTHEAST PLAINS

CITY           SKY/WX    TMP DP  RH WIND       PRES   REMARKS
LAS VEGAS      PTSUNNY   73  55  53 S7        30.25R
RATON          PTSUNNY   72  58  61 N18G33    30.23R
CLAYTON        CLOUDY    78  62  57 NE16      30.16R

$$
NMZ532>537-021800-
EASTCENTRAL PLAINS

CITY           SKY/WX    TMP DP  RH WIND       PRES   REMARKS
TUCUMCARI      PTSUNNY   82  59  45 SW7       30.06F
CANNON AFB     PTSUNNY   79  61  53 SE5       30.09R
CLOVIS AIRPORT CLOUDY    79  63  57 E6          N/A

$$
NMZ028-029-538-021800-
SOUTHEAST PLAINS

CITY           SKY/WX    TMP DP  RH WIND       PRES   REMARKS
ROSWELL        MOSUNNY   83  63  50 S6        30.05F
ARTESIA        MOSUNNY   81  66  61 SE9       30.06F
CARLSBAD       SUNNY     82  65  56 VRB7      30.03F
HOBBS          SUNNY     81  63  54 SE7       30.06F


$$


USA.gov is the U.S. government's official web portal to all federal, state and local government web resources and services.